📊 Raw Sensor Data
Showing records 35101 to 35125 of 84,872 total
| ID | Distance (ft) | Battery V | Battery A | Int Temp (°F) | Int Humid (%) | Ext Temp (°F) | Solar V | RSSI | SNR | Time Stamp |
|---|---|---|---|---|---|---|---|---|---|---|
| 49784 | 14.8 | 3.65 | -5 | 64 | 47 | 64 | 0.10 | -70 | 8 | 08/21/2025 12:45 AM |
| 49783 | 14.8 | 3.80 | -5 | 65 | 47 | 65 | 0.00 | -70 | 8 | 08/21/2025 12:30 AM |
| 49782 | 14.8 | 3.80 | -5 | 66 | 47 | 66 | 0.00 | -69 | 8 | 08/21/2025 12:15 AM |
| 49781 | 14.8 | 3.66 | -5 | 68 | 46 | 68 | 0.00 | -69 | 9 | 08/21/2025 12:00 AM |
| 49780 | 14.8 | 3.63 | -5 | 70 | 45 | 71 | 0.00 | -70 | 8 | 08/20/2025 11:45 PM |
| 49779 | 14.8 | 3.66 | -5 | 70 | 46 | 71 | 0.00 | -69 | 8 | 08/20/2025 11:30 PM |
| 49778 | 14.7 | 3.66 | -5 | 70 | 46 | 72 | 0.00 | -69 | 8 | 08/20/2025 11:15 PM |
| 49777 | 14.7 | 3.66 | -5 | 70 | 46 | 72 | 0.00 | -69 | 8 | 08/20/2025 11:00 PM |
| 49776 | 14.7 | 3.66 | -5 | 70 | 46 | 71 | 0.00 | -69 | 8 | 08/20/2025 10:45 PM |
| 49775 | 14.7 | 3.67 | -5 | 70 | 46 | 72 | 0.10 | -69 | 8 | 08/20/2025 10:30 PM |
| 49774 | 14.7 | 3.81 | -5 | 70 | 47 | 72 | 0.00 | -68 | 7 | 08/20/2025 10:15 PM |
| 49773 | 14.7 | 3.67 | -5 | 71 | 47 | 72 | 0.00 | -70 | 9 | 08/20/2025 10:00 PM |
| 49772 | 14.7 | 3.81 | -5 | 71 | 48 | 72 | 0.00 | -70 | 8 | 08/20/2025 09:45 PM |
| 49771 | 14.7 | 3.67 | -5 | 71 | 49 | 71 | 0.00 | -70 | 8 | 08/20/2025 09:30 PM |
| 49770 | 14.7 | 3.67 | -5 | 72 | 50 | 72 | 0.00 | -70 | 8 | 08/20/2025 09:15 PM |
| 49769 | 14.7 | 3.81 | -5 | 73 | 51 | 73 | 0.10 | -70 | 8 | 08/20/2025 09:00 PM |
| 49768 | 14.7 | 3.64 | -5 | 75 | 53 | 73 | 0.00 | -70 | 8 | 08/20/2025 08:45 PM |
| 49767 | 14.7 | 3.82 | -5 | 77 | 55 | 76 | 0.00 | -69 | 8 | 08/20/2025 08:30 PM |
| 49766 | 14.7 | 3.64 | -5 | 79 | 57 | 76 | 0.40 | -70 | 8 | 08/20/2025 08:15 PM |
| 49765 | 14.7 | 3.82 | -5 | 82 | 58 | 78 | 1.20 | -70 | 9 | 08/20/2025 08:00 PM |
| 49764 | 14.8 | 3.82 | -5 | 88 | 58 | 82 | 4.50 | -69 | 8 | 08/20/2025 07:45 PM |
| 49763 | 14.8 | 3.72 | 0 | 94 | 57 | 86 | 4.60 | -70 | 8 | 08/20/2025 07:30 PM |
| 49762 | 14.8 | 3.86 | 5 | 99 | 55 | 91 | 4.50 | -71 | 7 | 08/20/2025 07:15 PM |
| 49761 | 14.9 | 3.77 | -12 | 103 | 54 | 95 | 4.50 | -70 | 8 | 08/20/2025 07:00 PM |
| 49760 | 14.9 | 3.80 | 0 | 106 | 53 | 96 | 5.10 | -70 | 8 | 08/20/2025 06:45 PM |